Location: Saluda
(35.2377°N, 82.3468°W)
Time: 05:36:11
(UTC+00:00)

Vanguard 2 Rocket - Pass Details

Date: 07 October 2022
Orbit: 555 x 3321 km, 32.9° (Epoch: 04 December)

Event Time Altitude Azimuth Distance (km) Brightness Sun altitude
Rises 06:28:30 0° 275° (W) 6,237 - -56.0°
Reaches altitude 10° 06:33:18 10° 274° (W) 4,798 - -55.5°
Maximum altitude 06:45:27 70° 194° (SSW) 1,485 - -54.0°
Drops below altitude 10° 06:52:06 10° 112° (ESE) 2,737 - -53.1°
Sets 06:54:09 0° 109° (ESE) 3,458 - -52.8°
